﻿測定場所 (Monitoring sites),日付 (Measurement date),時間 (Measurement time),線量率 最大値 (max) μGy/h,線量率 最小値 (min) μGy/h,線量率 平均値 (average) μGy/h,
大田 (Ota),2019-11-24,23:01～24:00,0.0353,0.0315,0.0335,
大田 (Ota),2019-11-24,22:01～23:00,0.0348,0.0302,0.0330,
大田 (Ota),2019-11-24,21:01～22:00,0.0347,0.0312,0.0330,
大田 (Ota),2019-11-24,20:01～21:00,0.0348,0.0309,0.0329,
大田 (Ota),2019-11-24,19:01～20:00,0.0349,0.0301,0.0330,
大田 (Ota),2019-11-24,18:01～19:00,0.0346,0.0305,0.0328,
大田 (Ota),2019-11-24,17:01～18:00,0.0349,0.0298,0.0329,
大田 (Ota),2019-11-24,16:01～17:00,0.0349,0.0308,0.0329,
大田 (Ota),2019-11-24,15:01～16:00,0.0352,0.0312,0.0331,
大田 (Ota),2019-11-24,14:01～15:00,0.0360,0.0314,0.0331,
大田 (Ota),2019-11-24,13:01～14:00,0.0354,0.0309,0.0331,
大田 (Ota),2019-11-24,12:01～13:00,0.0350,0.0301,0.0330,
大田 (Ota),2019-11-24,11:01～12:00,0.0355,0.0312,0.0331,
大田 (Ota),2019-11-24,10:01～11:00,0.0361,0.0310,0.0331,
大田 (Ota),2019-11-24,09:01～10:00,0.0350,0.0304,0.0333,
大田 (Ota),2019-11-24,08:01～09:00,0.0358,0.0320,0.0337,
大田 (Ota),2019-11-24,07:01～08:00,0.0363,0.0317,0.0341,
大田 (Ota),2019-11-24,06:01～07:00,0.0374,0.0333,0.0355,
大田 (Ota),2019-11-24,05:01～06:00,0.0402,0.0334,0.0361,
大田 (Ota),2019-11-24,04:01～05:00,0.0375,0.0329,0.0353,
大田 (Ota),2019-11-24,03:01～04:00,0.0387,0.0334,0.0357,
大田 (Ota),2019-11-24,02:01～03:00,0.0402,0.0348,0.0368,
大田 (Ota),2019-11-24,01:01～02:00,0.0410,0.0351,0.0370,
大田 (Ota),2019-11-24,00:01～01:00,0.0397,0.0352,0.0369,
大田 (Ota),2019-11-23,23:01～24:00,0.0390,0.0336,0.0357,
大田 (Ota),2019-11-23,22:01～23:00,0.0370,0.0325,0.0352,
大田 (Ota),2019-11-23,21:01～22:00,0.0374,0.0313,0.0345,
大田 (Ota),2019-11-23,20:01～21:00,0.0360,0.0314,0.0338,
大田 (Ota),2019-11-23,19:01～20:00,0.0356,0.0325,0.0340,
大田 (Ota),2019-11-23,18:01～19:00,0.0362,0.0320,0.0338,
大田 (Ota),2019-11-23,17:01～18:00,0.0362,0.0324,0.0343,
大田 (Ota),2019-11-23,16:01～17:00,0.0367,0.0325,0.0344,
大田 (Ota),2019-11-23,15:01～16:00,0.0367,0.0328,0.0347,
大田 (Ota),2019-11-23,14:01～15:00,0.0366,0.0326,0.0347,
大田 (Ota),2019-11-23,13:01～14:00,0.0369,0.0333,0.0352,
大田 (Ota),2019-11-23,12:01～13:00,0.0388,0.0326,0.0360,
大田 (Ota),2019-11-23,11:01～12:00,0.0390,0.0344,0.0364,
大田 (Ota),2019-11-23,10:01～11:00,0.0397,0.0335,0.0364,
大田 (Ota),2019-11-23,09:01～10:00,0.0413,0.0341,0.0371,
大田 (Ota),2019-11-23,08:01～09:00,0.0412,0.0345,0.0381,
大田 (Ota),2019-11-23,07:01～08:00,0.0411,0.0352,0.0373,
大田 (Ota),2019-11-23,06:01～07:00,0.0401,0.0348,0.0370,
大田 (Ota),2019-11-23,05:01～06:00,0.0439,0.0357,0.0398,
大田 (Ota),2019-11-23,04:01～05:00,0.0450,0.0370,0.0409,
大田 (Ota),2019-11-23,03:01～04:00,0.0473,0.0400,0.0437,
大田 (Ota),2019-11-23,02:01～03:00,0.0480,0.0419,0.0448,
大田 (Ota),2019-11-23,01:01～02:00,0.0507,0.0415,0.0461,
大田 (Ota),2019-11-23,00:01～01:00,0.0498,0.0432,0.0465,
大田 (Ota),2019-11-22,23:01～24:00,0.0489,0.0429,0.0462,
大田 (Ota),2019-11-22,22:01～23:00,0.0472,0.0405,0.0440,
大田 (Ota),2019-11-22,21:01～22:00,0.0484,0.0399,0.0437,
大田 (Ota),2019-11-22,20:01～21:00,0.0516,0.0405,0.0461,
大田 (Ota),2019-11-22,19:01～20:00,0.0528,0.0451,0.0491,
大田 (Ota),2019-11-22,18:01～19:00,0.0531,0.0457,0.0490,
大田 (Ota),2019-11-22,17:01～18:00,0.0528,0.0468,0.0497,
大田 (Ota),2019-11-22,16:01～17:00,0.0541,0.0475,0.0509,
大田 (Ota),2019-11-22,15:01～16:00,0.0556,0.0487,0.0519,
大田 (Ota),2019-11-22,14:01～15:00,0.0570,0.0492,0.0527,
大田 (Ota),2019-11-22,13:01～14:00,0.0589,0.0490,0.0537,
大田 (Ota),2019-11-22,12:01～13:00,0.0558,0.0458,0.0514,
大田 (Ota),2019-11-22,11:01～12:00,0.0513,0.0427,0.0474,
大田 (Ota),2019-11-22,10:01～11:00,0.0495,0.0422,0.0456,
大田 (Ota),2019-11-22,09:01～10:00,0.0485,0.0394,0.0440,
大田 (Ota),2019-11-22,08:01～09:00,0.0430,0.0334,0.0371,
大田 (Ota),2019-11-22,07:01～08:00,0.0366,0.0329,0.0348,
大田 (Ota),2019-11-22,06:01～07:00,0.0380,0.0333,0.0353,
大田 (Ota),2019-11-22,05:01～06:00,0.0372,0.0316,0.0347,
大田 (Ota),2019-11-22,04:01～05:00,0.0366,0.0328,0.0346,
大田 (Ota),2019-11-22,03:01～04:00,0.0361,0.0325,0.0344,
大田 (Ota),2019-11-22,02:01～03:00,0.0361,0.0320,0.0341,
大田 (Ota),2019-11-22,01:01～02:00,0.0367,0.0328,0.0342,
大田 (Ota),2019-11-22,00:01～01:00,0.0361,0.0320,0.0338,
大田 (Ota),2019-11-21,23:01～24:00,0.0357,0.0317,0.0338,
大田 (Ota),2019-11-21,22:01～23:00,0.0363,0.0323,0.0340,
大田 (Ota),2019-11-21,21:01～22:00,0.0363,0.0317,0.0339,
大田 (Ota),2019-11-21,20:01～21:00,0.0366,0.0314,0.0338,
大田 (Ota),2019-11-21,19:01～20:00,0.0358,0.0319,0.0340,
大田 (Ota),2019-11-21,18:01～19:00,0.0359,0.0310,0.0339,
大田 (Ota),2019-11-21,17:01～18:00,0.0365,0.0322,0.0342,
大田 (Ota),2019-11-21,16:01～17:00,0.0361,0.0316,0.0340,
大田 (Ota),2019-11-21,15:01～16:00,0.0361,0.0319,0.0339,
大田 (Ota),2019-11-21,14:01～15:00,0.0362,0.0315,0.0338,
大田 (Ota),2019-11-21,13:01～14:00,0.0360,0.0308,0.0337,
大田 (Ota),2019-11-21,12:01～13:00,0.0371,0.0320,0.0341,
大田 (Ota),2019-11-21,11:01～12:00,0.0361,0.0326,0.0341,
大田 (Ota),2019-11-21,10:01～11:00,0.0371,0.0319,0.0346,
大田 (Ota),2019-11-21,09:01～10:00,0.0368,0.0314,0.0343,
大田 (Ota),2019-11-21,08:01～09:00,0.0362,0.0323,0.0342,
大田 (Ota),2019-11-21,07:01～08:00,0.0361,0.0316,0.0341,
大田 (Ota),2019-11-21,06:01～07:00,0.0356,0.0319,0.0337,
大田 (Ota),2019-11-21,05:01～06:00,0.0368,0.0324,0.0340,
大田 (Ota),2019-11-21,04:01～05:00,0.0356,0.0323,0.0338,
大田 (Ota),2019-11-21,03:01～04:00,0.0360,0.0322,0.0340,
大田 (Ota),2019-11-21,02:01～03:00,0.0359,0.0324,0.0338,
大田 (Ota),2019-11-21,01:01～02:00,0.0356,0.0313,0.0339,
大田 (Ota),2019-11-21,00:01～01:00,0.0366,0.0318,0.0342,
大田 (Ota),2019-11-20,23:01～24:00,0.0360,0.0318,0.0340,
大田 (Ota),2019-11-20,22:01～23:00,0.0358,0.0323,0.0342,
大田 (Ota),2019-11-20,21:01～22:00,0.0362,0.0325,0.0342,
大田 (Ota),2019-11-20,20:01～21:00,0.0355,0.0324,0.0341,
大田 (Ota),2019-11-20,19:01～20:00,0.0364,0.0314,0.0339,
大田 (Ota),2019-11-20,18:01～19:00,0.0364,0.0312,0.0341,
大田 (Ota),2019-11-20,17:01～18:00,0.0367,0.0319,0.0341,
大田 (Ota),2019-11-20,16:01～17:00,0.0357,0.0317,0.0339,
大田 (Ota),2019-11-20,15:01～16:00,0.0355,0.0324,0.0341,
大田 (Ota),2019-11-20,14:01～15:00,0.0358,0.0319,0.0341,
大田 (Ota),2019-11-20,13:01～14:00,0.0362,0.0321,0.0340,
大田 (Ota),2019-11-20,12:01～13:00,0.0363,0.0321,0.0343,
大田 (Ota),2019-11-20,11:01～12:00,0.0358,0.0325,0.0341,
大田 (Ota),2019-11-20,10:01～11:00,0.0367,0.0318,0.0342,
大田 (Ota),2019-11-20,09:01～10:00,0.0364,0.0320,0.0342,
大田 (Ota),2019-11-20,08:01～09:00,0.0363,0.0323,0.0342,
大田 (Ota),2019-11-20,07:01～08:00,0.0366,0.0321,0.0342,
大田 (Ota),2019-11-20,06:01～07:00,0.0362,0.0313,0.0341,
大田 (Ota),2019-11-20,05:01～06:00,0.0355,0.0320,0.0338,
大田 (Ota),2019-11-20,04:01～05:00,0.0368,0.0324,0.0343,
大田 (Ota),2019-11-20,03:01～04:00,0.0360,0.0313,0.0340,
大田 (Ota),2019-11-20,02:01～03:00,0.0366,0.0325,0.0342,
大田 (Ota),2019-11-20,01:01～02:00,0.0362,0.0325,0.0338,
大田 (Ota),2019-11-20,00:01～01:00,0.0355,0.0321,0.0341,
大田 (Ota),2019-11-19,23:01～24:00,0.0359,0.0320,0.0339,
大田 (Ota),2019-11-19,22:01～23:00,0.0361,0.0311,0.0338,
大田 (Ota),2019-11-19,21:01～22:00,0.0362,0.0315,0.0338,
大田 (Ota),2019-11-19,20:01～21:00,0.0359,0.0317,0.0339,
大田 (Ota),2019-11-19,19:01～20:00,0.0365,0.0320,0.0340,
大田 (Ota),2019-11-19,18:01～19:00,0.0360,0.0310,0.0340,
大田 (Ota),2019-11-19,17:01～18:00,0.0365,0.0321,0.0341,
大田 (Ota),2019-11-19,16:01～17:00,0.0365,0.0310,0.0340,
大田 (Ota),2019-11-19,15:01～16:00,0.0369,0.0323,0.0341,
大田 (Ota),2019-11-19,14:01～15:00,0.0361,0.0320,0.0338,
大田 (Ota),2019-11-19,13:01～14:00,0.0358,0.0320,0.0341,
大田 (Ota),2019-11-19,12:01～13:00,0.0367,0.0314,0.0340,
大田 (Ota),2019-11-19,11:01～12:00,0.0357,0.0320,0.0341,
大田 (Ota),2019-11-19,10:01～11:00,0.0358,0.0319,0.0339,
大田 (Ota),2019-11-19,09:01～10:00,0.0364,0.0323,0.0343,
大田 (Ota),2019-11-19,08:01～09:00,0.0357,0.0321,0.0339,
大田 (Ota),2019-11-19,07:01～08:00,0.0364,0.0317,0.0344,
大田 (Ota),2019-11-19,06:01～07:00,0.0375,0.0329,0.0353,
大田 (Ota),2019-11-19,05:01～06:00,0.0422,0.0353,0.0383,
大田 (Ota),2019-11-19,04:01～05:00,0.0466,0.0391,0.0422,
大田 (Ota),2019-11-19,03:01～04:00,0.0461,0.0378,0.0415,
大田 (Ota),2019-11-19,02:01～03:00,0.0395,0.0347,0.0366,
大田 (Ota),2019-11-19,01:01～02:00,0.0430,0.0354,0.0379,
大田 (Ota),2019-11-19,00:01～01:00,0.0393,0.0332,0.0358,
大田 (Ota),2019-11-18,23:01～24:00,0.0370,0.0328,0.0349,
大田 (Ota),2019-11-18,22:01～23:00,0.0400,0.0337,0.0358,
大田 (Ota),2019-11-18,21:01～22:00,0.0378,0.0322,0.0351,
大田 (Ota),2019-11-18,20:01～21:00,0.0364,0.0317,0.0336,
大田 (Ota),2019-11-18,19:01～20:00,0.0362,0.0318,0.0339,
大田 (Ota),2019-11-18,18:01～19:00,0.0361,0.0322,0.0341,
大田 (Ota),2019-11-18,17:01～18:00,0.0361,0.0323,0.0339,
大田 (Ota),2019-11-18,16:01～17:00,0.0353,0.0315,0.0338,
大田 (Ota),2019-11-18,15:01～16:00,0.0358,0.0308,0.0336,
大田 (Ota),2019-11-18,14:01～15:00,0.0357,0.0317,0.0336,
大田 (Ota),2019-11-18,13:01～14:00,0.0352,0.0322,0.0336,
大田 (Ota),2019-11-18,12:01～13:00,0.0361,0.0313,0.0342,
大田 (Ota),2019-11-18,11:01～12:00,0.0359,0.0318,0.0342,
大田 (Ota),2019-11-18,10:01～11:00,0.0368,0.0326,0.0351,
大田 (Ota),2019-11-18,09:01～10:00,0.0411,0.0340,0.0368,
大田 (Ota),2019-11-18,08:01～09:00,0.0431,0.0366,0.0400,
大田 (Ota),2019-11-18,07:01～08:00,0.0397,0.0333,0.0355,
大田 (Ota),2019-11-18,06:01～07:00,0.0364,0.0326,0.0345,
大田 (Ota),2019-11-18,05:01～06:00,0.0370,0.0323,0.0348,
大田 (Ota),2019-11-18,04:01～05:00,0.0361,0.0320,0.0345,
大田 (Ota),2019-11-18,03:01～04:00,0.0362,0.0326,0.0342,
大田 (Ota),2019-11-18,02:01～03:00,0.0360,0.0320,0.0341,
大田 (Ota),2019-11-18,01:01～02:00,0.0356,0.0314,0.0338,
大田 (Ota),2019-11-18,00:01～01:00,0.0360,0.0315,0.0339,
